Year,Month,Day,Hour,Minute,Value (Times are PST for windgust in km/hr)
2011,11,10,00,00,9.60
2011,11,10,00,01,12.90
2011,11,10,00,02,9.60
2011,11,10,00,03,6.40
2011,11,10,00,04,6.40
2011,11,10,00,05,8.10
2011,11,10,00,06,8.10
2011,11,10,00,07,6.40
2011,11,10,00,08,4.80
2011,11,10,00,09,3.20
2011,11,10,00,10,1.60
2011,11,10,00,11,1.60
2011,11,10,00,12,3.20
2011,11,10,00,13,6.40
2011,11,10,00,14,8.10
2011,11,10,00,15,4.80
2011,11,10,00,16,6.40
2011,11,10,00,17,6.40
2011,11,10,00,18,4.80
2011,11,10,00,19,4.80
2011,11,10,00,20,6.40
2011,11,10,00,21,9.60
2011,11,10,00,22,8.10
2011,11,10,00,23,6.40
2011,11,10,00,24,8.10
2011,11,10,00,25,6.40
2011,11,10,00,26,6.40
2011,11,10,00,27,6.40
2011,11,10,00,28,6.40
2011,11,10,00,29,3.20
2011,11,10,00,30,3.20
2011,11,10,00,31,8.10
2011,11,10,00,32,6.40
2011,11,10,00,33,4.80
2011,11,10,00,34,3.20
2011,11,10,00,35,3.20
2011,11,10,00,36,1.60
2011,11,10,00,37,1.60
2011,11,10,00,38,4.80
2011,11,10,00,39,4.80
2011,11,10,00,40,3.20
2011,11,10,00,41,4.80
2011,11,10,00,42,4.80
2011,11,10,00,43,8.10
2011,11,10,00,44,4.80
2011,11,10,00,45,6.40
2011,11,10,00,46,4.80
2011,11,10,00,47,4.80
2011,11,10,00,48,6.40
2011,11,10,00,49,6.40
2011,11,10,00,50,4.80
2011,11,10,00,51,4.80
2011,11,10,00,52,3.20
2011,11,10,00,53,3.20
2011,11,10,00,54,3.20
2011,11,10,00,55,4.80
2011,11,10,00,56,6.40
2011,11,10,00,57,3.20
2011,11,10,00,58,3.20
2011,11,10,00,59,4.80
2011,11,10,01,00,4.80
2011,11,10,01,01,4.80
2011,11,10,01,02,3.20
2011,11,10,01,03,6.40
2011,11,10,01,04,4.80
2011,11,10,01,06,3.20
2011,11,10,01,07,4.80
2011,11,10,01,08,4.80
2011,11,10,01,09,3.20
2011,11,10,01,12,1.60
2011,11,10,01,13,4.80
2011,11,10,01,14,4.80
2011,11,10,01,15,1.60
2011,11,10,01,16,1.60
2011,11,10,01,17,3.20
2011,11,10,01,18,4.80
2011,11,10,01,19,4.80
2011,11,10,01,20,3.20
2011,11,10,01,21,3.20
2011,11,10,01,22,3.20
2011,11,10,01,24,8.10
2011,11,10,01,25,4.80
2011,11,10,01,26,1.60
2011,11,10,01,27,1.60
2011,11,10,01,28,1.60
2011,11,10,01,30,1.60
2011,11,10,01,31,3.20
2011,11,10,01,32,3.20
2011,11,10,01,33,9.60
2011,11,10,01,34,9.60
2011,11,10,01,35,4.80
2011,11,10,01,36,6.40
2011,11,10,01,37,6.40
2011,11,10,01,38,9.60
2011,11,10,01,39,8.10
2011,11,10,01,40,6.40
2011,11,10,01,41,8.10
2011,11,10,01,42,8.10
2011,11,10,01,43,3.20
2011,11,10,01,44,1.60
2011,11,10,01,45,3.20
2011,11,10,01,46,3.20
2011,11,10,01,49,4.80
2011,11,10,01,50,4.80
2011,11,10,01,51,3.20
2011,11,10,01,52,3.20
2011,11,10,01,53,3.20
2011,11,10,01,54,4.80
2011,11,10,01,55,6.40
2011,11,10,01,56,4.80
2011,11,10,01,57,4.80
2011,11,10,01,58,6.40
2011,11,10,01,59,6.40
2011,11,10,02,00,6.40
2011,11,10,02,01,4.80
2011,11,10,02,02,4.80
2011,11,10,02,03,6.40
2011,11,10,02,04,6.40
2011,11,10,02,05,6.40
2011,11,10,02,06,4.80
2011,11,10,02,07,6.40
2011,11,10,02,08,9.60
2011,11,10,02,09,6.40
2011,11,10,02,10,6.40
2011,11,10,02,11,8.10
2011,11,10,02,12,11.30
2011,11,10,02,13,9.60
2011,11,10,02,14,11.30
2011,11,10,02,15,6.40
2011,11,10,02,16,12.90
2011,11,10,02,17,9.60
2011,11,10,02,18,14.50
2011,11,10,02,19,11.30
2011,11,10,02,20,8.10
2011,11,10,02,21,9.60
2011,11,10,02,22,9.60
2011,11,10,02,23,17.70
2011,11,10,02,24,16.10
2011,11,10,02,25,11.30
2011,11,10,02,26,6.40
2011,11,10,02,27,6.40
2011,11,10,02,28,8.10
2011,11,10,02,29,8.10
2011,11,10,02,30,3.20
2011,11,10,02,32,3.20
2011,11,10,02,33,4.80
2011,11,10,02,34,6.40
2011,11,10,02,35,4.80
2011,11,10,02,36,3.20
2011,11,10,02,37,3.20
2011,11,10,02,38,3.20
2011,11,10,02,39,6.40
2011,11,10,02,40,4.80
2011,11,10,02,41,8.10
2011,11,10,02,42,8.10
2011,11,10,02,43,9.60
2011,11,10,02,44,6.40
2011,11,10,02,45,8.10
2011,11,10,02,46,8.10
2011,11,10,02,47,9.60
2011,11,10,02,48,6.40
2011,11,10,02,49,6.40
2011,11,10,02,50,8.10
2011,11,10,02,51,9.60
2011,11,10,02,52,6.40
2011,11,10,02,53,6.40
2011,11,10,02,54,4.80
2011,11,10,02,55,1.60
2011,11,10,02,56,4.80
2011,11,10,02,57,4.80
2011,11,10,02,58,8.10
2011,11,10,02,59,9.60
2011,11,10,03,00,6.40
2011,11,10,03,01,6.40
2011,11,10,03,02,4.80
2011,11,10,03,03,8.10
2011,11,10,03,04,9.60
2011,11,10,03,05,9.60
2011,11,10,03,06,8.10
2011,11,10,03,07,6.40
2011,11,10,03,08,8.10
2011,11,10,03,09,6.40
2011,11,10,03,10,6.40
2011,11,10,03,11,8.10
2011,11,10,03,12,11.30
2011,11,10,03,13,11.30
2011,11,10,03,14,9.60
2011,11,10,03,15,9.60
2011,11,10,03,16,8.10
2011,11,10,03,17,6.40
2011,11,10,03,18,8.10
2011,11,10,03,19,9.60
2011,11,10,03,20,14.50
2011,11,10,03,21,11.30
2011,11,10,03,22,12.90
2011,11,10,03,23,9.60
2011,11,10,03,24,8.10
2011,11,10,03,25,6.40
2011,11,10,03,26,8.10
2011,11,10,03,27,9.60
2011,11,10,03,28,9.60
2011,11,10,03,29,11.30
2011,11,10,03,30,4.80
2011,11,10,03,31,4.80
2011,11,10,03,32,3.20
2011,11,10,03,37,4.80
2011,11,10,03,38,4.80
2011,11,10,03,39,4.80
2011,11,10,03,40,3.20
2011,11,10,03,41,6.40
2011,11,10,03,42,6.40
2011,11,10,03,43,3.20
2011,11,10,03,44,6.40
2011,11,10,03,45,4.80
2011,11,10,03,46,6.40
2011,11,10,03,47,6.40
2011,11,10,03,48,11.30
2011,11,10,03,49,12.90
2011,11,10,03,50,9.60
2011,11,10,03,51,14.50
2011,11,10,03,52,8.10
2011,11,10,03,53,3.20
2011,11,10,03,54,3.20
2011,11,10,03,55,3.20
2011,11,10,03,56,4.80
2011,11,10,03,57,4.80
2011,11,10,03,58,8.10
2011,11,10,03,59,9.60
2011,11,10,04,00,11.30
2011,11,10,04,01,3.20
2011,11,10,04,02,6.40
2011,11,10,04,03,4.80
2011,11,10,04,04,4.80
2011,11,10,04,05,8.10
2011,11,10,04,06,6.40
2011,11,10,04,07,4.80
2011,11,10,04,08,6.40
2011,11,10,04,09,4.80
2011,11,10,04,10,6.40
2011,11,10,04,11,8.10
2011,11,10,04,12,9.60
2011,11,10,04,13,9.60
2011,11,10,04,14,4.80
2011,11,10,04,15,4.80
2011,11,10,04,16,6.40
2011,11,10,04,17,4.80
2011,11,10,04,18,1.60
2011,11,10,04,24,3.20
2011,11,10,04,25,3.20
2011,11,10,04,26,4.80
2011,11,10,04,27,4.80
2011,11,10,04,28,4.80
2011,11,10,04,29,4.80
2011,11,10,04,31,3.20
2011,11,10,04,33,1.60
2011,11,10,04,34,4.80
2011,11,10,04,35,3.20
2011,11,10,04,36,4.80
2011,11,10,04,37,6.40
2011,11,10,04,38,8.10
2011,11,10,04,39,8.10
2011,11,10,04,40,11.30
2011,11,10,04,41,12.90
2011,11,10,04,42,12.90
2011,11,10,04,43,11.30
2011,11,10,04,44,11.30
2011,11,10,04,45,11.30
2011,11,10,04,46,17.70
2011,11,10,04,47,9.60
2011,11,10,04,48,11.30
2011,11,10,04,49,11.30
2011,11,10,04,50,14.50
2011,11,10,04,51,14.50
2011,11,10,04,52,11.30
2011,11,10,04,53,9.60
2011,11,10,04,54,11.30
2011,11,10,04,55,11.30
2011,11,10,04,56,14.50
2011,11,10,04,57,17.70
2011,11,10,04,58,11.30
2011,11,10,04,59,12.90
2011,11,10,05,00,11.30
2011,11,10,05,01,17.70
2011,11,10,05,02,11.30
2011,11,10,05,03,11.30
2011,11,10,05,04,11.30
2011,11,10,05,05,11.30
2011,11,10,05,06,11.30
2011,11,10,05,07,14.50
2011,11,10,05,08,14.50
2011,11,10,05,09,16.10
2011,11,10,05,10,14.50
2011,11,10,05,11,19.30
2011,11,10,05,12,12.90
2011,11,10,05,13,9.60
2011,11,10,05,14,11.30
2011,11,10,05,15,8.10
2011,11,10,05,16,8.10
2011,11,10,05,17,11.30
2011,11,10,05,18,14.50
2011,11,10,05,19,14.50
2011,11,10,05,20,9.60
2011,11,10,05,21,8.10
2011,11,10,05,22,9.60
2011,11,10,05,23,9.60
2011,11,10,05,24,12.90
2011,11,10,05,25,9.60
2011,11,10,05,26,8.10
2011,11,10,05,27,4.80
2011,11,10,05,28,4.80
2011,11,10,05,30,8.10
2011,11,10,05,31,6.40
2011,11,10,05,32,4.80
2011,11,10,05,33,6.40
2011,11,10,05,34,4.80
2011,11,10,05,35,3.20
2011,11,10,05,36,1.60
2011,11,10,05,37,3.20
2011,11,10,05,38,4.80
2011,11,10,05,39,4.80
2011,11,10,05,40,6.40
2011,11,10,05,41,4.80
2011,11,10,05,42,3.20
2011,11,10,05,43,3.20
2011,11,10,05,44,4.80
2011,11,10,05,45,4.80
2011,11,10,05,46,4.80
2011,11,10,05,47,4.80
2011,11,10,05,48,4.80
2011,11,10,05,49,4.80
2011,11,10,05,50,3.20
2011,11,10,05,51,3.20
2011,11,10,05,52,1.60
2011,11,10,05,57,3.20
2011,11,10,05,58,3.20
2011,11,10,05,59,3.20
2011,11,10,06,00,3.20
2011,11,10,06,01,4.80
2011,11,10,06,02,8.10
2011,11,10,06,03,9.60
2011,11,10,06,04,8.10
2011,11,10,06,05,6.40
2011,11,10,06,06,6.40
2011,11,10,06,07,6.40
2011,11,10,06,08,9.60
2011,11,10,06,09,14.50
2011,11,10,06,10,11.30
2011,11,10,06,11,16.10
2011,11,10,06,12,17.70
2011,11,10,06,13,11.30
2011,11,10,06,14,9.60
2011,11,10,06,15,11.30
2011,11,10,06,16,16.10
2011,11,10,06,17,14.50
2011,11,10,06,18,8.10
2011,11,10,06,19,9.60
2011,11,10,06,20,4.80
2011,11,10,06,21,4.80
2011,11,10,06,22,8.10
2011,11,10,06,23,8.10
2011,11,10,06,24,8.10
2011,11,10,06,25,4.80
2011,11,10,06,26,6.40
2011,11,10,06,27,8.10
2011,11,10,06,28,11.30
2011,11,10,06,29,14.50
2011,11,10,06,30,16.10
2011,11,10,06,31,16.10
2011,11,10,06,32,16.10
2011,11,10,06,33,14.50
2011,11,10,06,34,12.90
2011,11,10,06,35,11.30
2011,11,10,06,36,6.40
2011,11,10,06,37,8.10
2011,11,10,06,38,8.10
2011,11,10,06,39,12.90
2011,11,10,06,40,14.50
2011,11,10,06,41,22.50
2011,11,10,06,42,19.30
2011,11,10,06,43,19.30
2011,11,10,06,44,19.30
2011,11,10,06,45,20.90
2011,11,10,06,46,19.30
2011,11,10,06,47,16.10
2011,11,10,06,48,19.30
2011,11,10,06,49,19.30
2011,11,10,06,50,20.90
2011,11,10,06,51,17.70
2011,11,10,06,52,16.10
2011,11,10,06,53,16.10
2011,11,10,06,54,17.70
2011,11,10,06,55,9.60
2011,11,10,06,56,6.40
2011,11,10,06,57,8.10
2011,11,10,06,58,6.40
2011,11,10,06,59,9.60
2011,11,10,07,00,8.10
2011,11,10,07,01,8.10
2011,11,10,07,02,6.40
2011,11,10,07,03,6.40
2011,11,10,07,04,6.40
2011,11,10,07,05,9.60
2011,11,10,07,06,8.10
2011,11,10,07,07,4.80
2011,11,10,07,08,4.80
2011,11,10,07,09,6.40
2011,11,10,07,10,6.40
2011,11,10,07,11,3.20
2011,11,10,07,12,6.40
2011,11,10,07,13,4.80
2011,11,10,07,14,3.20
2011,11,10,07,15,4.80
2011,11,10,07,16,6.40
2011,11,10,07,17,6.40
2011,11,10,07,18,6.40
2011,11,10,07,19,8.10
2011,11,10,07,20,8.10
2011,11,10,07,21,6.40
2011,11,10,07,22,9.60
2011,11,10,07,23,6.40
2011,11,10,07,24,8.10
2011,11,10,07,25,6.40
2011,11,10,07,26,6.40
2011,11,10,07,27,3.20
2011,11,10,07,28,3.20
2011,11,10,07,29,3.20
2011,11,10,07,30,4.80
2011,11,10,07,31,9.60
2011,11,10,07,32,11.30
2011,11,10,07,33,16.10
2011,11,10,07,34,11.30
2011,11,10,07,35,8.10
2011,11,10,07,36,6.40
2011,11,10,07,37,6.40
2011,11,10,07,38,3.20
2011,11,10,07,39,3.20
2011,11,10,07,40,1.60
2011,11,10,07,41,6.40
2011,11,10,07,42,11.30
2011,11,10,07,43,11.30
2011,11,10,07,44,14.50
2011,11,10,07,45,11.30
2011,11,10,07,46,9.60
2011,11,10,07,47,9.60
2011,11,10,07,48,11.30
2011,11,10,07,49,11.30
2011,11,10,07,50,9.60
2011,11,10,07,51,12.90
2011,11,10,07,52,14.50
2011,11,10,07,53,16.10
2011,11,10,07,54,14.50
2011,11,10,07,55,11.30
2011,11,10,07,56,11.30
2011,11,10,07,57,11.30
2011,11,10,07,58,9.60
2011,11,10,07,59,9.60
2011,11,10,08,00,14.50
2011,11,10,08,01,14.50
2011,11,10,08,02,8.10
2011,11,10,08,03,4.80
2011,11,10,08,04,6.40
2011,11,10,08,05,8.10
2011,11,10,08,06,8.10
2011,11,10,08,07,8.10
2011,11,10,08,08,11.30
2011,11,10,08,09,11.30
2011,11,10,08,10,16.10
2011,11,10,08,11,11.30
2011,11,10,08,12,4.80
2011,11,10,08,13,6.40
2011,11,10,08,14,3.20
2011,11,10,08,15,9.60
2011,11,10,08,16,14.50
2011,11,10,08,17,6.40
2011,11,10,08,18,8.10
2011,11,10,08,19,8.10
2011,11,10,08,20,11.30
2011,11,10,08,21,9.60
2011,11,10,08,22,9.60
2011,11,10,08,23,9.60
2011,11,10,08,24,9.60
2011,11,10,08,25,9.60
2011,11,10,08,26,9.60
2011,11,10,08,27,11.30
2011,11,10,08,28,11.30
2011,11,10,08,29,11.30
2011,11,10,08,30,8.10
2011,11,10,08,31,4.80
2011,11,10,08,32,6.40
2011,11,10,08,33,6.40
2011,11,10,08,34,4.80
2011,11,10,08,35,4.80
2011,11,10,08,36,8.10
2011,11,10,08,37,1.60
2011,11,10,08,38,3.20
2011,11,10,08,39,1.60
2011,11,10,08,43,4.80
2011,11,10,08,44,8.10
2011,11,10,08,45,9.60
2011,11,10,08,46,11.30
2011,11,10,08,47,9.60
2011,11,10,08,48,9.60
2011,11,10,08,49,8.10
2011,11,10,08,50,11.30
2011,11,10,08,51,12.90
2011,11,10,08,52,8.10
2011,11,10,08,53,8.10
2011,11,10,08,54,8.10
2011,11,10,08,55,8.10
2011,11,10,08,56,9.60
2011,11,10,08,57,12.90
2011,11,10,08,58,11.30
2011,11,10,08,59,12.90
2011,11,10,09,00,16.10
2011,11,10,09,01,16.10
2011,11,10,09,02,16.10
2011,11,10,09,03,11.30
2011,11,10,09,04,9.60
2011,11,10,09,05,12.90
2011,11,10,09,06,8.10
2011,11,10,09,07,9.60
2011,11,10,09,08,9.60
2011,11,10,09,09,9.60
2011,11,10,09,10,9.60
2011,11,10,09,11,9.60
2011,11,10,09,12,11.30
2011,11,10,09,13,12.90
2011,11,10,09,14,17.70
2011,11,10,09,15,16.10
2011,11,10,09,16,17.70
2011,11,10,09,17,20.90
2011,11,10,09,18,17.70
2011,11,10,09,19,17.70
2011,11,10,09,20,19.30
2011,11,10,09,21,16.10
2011,11,10,09,22,14.50
2011,11,10,09,23,11.30
2011,11,10,09,24,12.90
2011,11,10,09,25,11.30
2011,11,10,09,26,14.50
2011,11,10,09,27,19.30
2011,11,10,09,28,14.50
2011,11,10,09,29,6.40
2011,11,10,09,30,8.10
2011,11,10,09,31,16.10
2011,11,10,09,32,17.70
2011,11,10,09,33,14.50
2011,11,10,09,34,11.30
2011,11,10,09,35,17.70
2011,11,10,09,36,16.10
2011,11,10,09,37,14.50
2011,11,10,09,38,19.30
2011,11,10,09,39,14.50
2011,11,10,09,40,16.10
2011,11,10,09,41,16.10
2011,11,10,09,42,16.10
2011,11,10,09,43,19.30
2011,11,10,09,44,16.10
2011,11,10,09,45,20.90
2011,11,10,09,46,19.30
2011,11,10,09,47,19.30
2011,11,10,09,48,16.10
2011,11,10,09,49,16.10
2011,11,10,09,50,14.50
2011,11,10,09,51,20.90
2011,11,10,09,52,22.50
2011,11,10,09,53,19.30
2011,11,10,09,54,19.30
2011,11,10,09,55,8.10
2011,11,10,09,56,6.40
2011,11,10,09,57,11.30
2011,11,10,09,58,11.30
2011,11,10,09,59,16.10
2011,11,10,10,00,19.30
2011,11,10,10,01,16.10
2011,11,10,10,02,19.30
2011,11,10,10,03,16.10
2011,11,10,10,04,14.50
2011,11,10,10,05,16.10
2011,11,10,10,06,11.30
2011,11,10,10,07,11.30
2011,11,10,10,08,6.40
2011,11,10,10,09,6.40
2011,11,10,10,10,6.40
2011,11,10,10,11,6.40
2011,11,10,10,12,8.10
2011,11,10,10,13,14.50
2011,11,10,10,14,8.10
2011,11,10,10,15,6.40
2011,11,10,10,16,12.90
2011,11,10,10,17,8.10
2011,11,10,10,18,16.10
2011,11,10,10,19,24.20
2011,11,10,10,20,19.30
2011,11,10,10,21,19.30
2011,11,10,10,22,16.10
2011,11,10,10,23,9.60
2011,11,10,10,24,16.10
2011,11,10,10,25,9.60
2011,11,10,10,26,8.10
2011,11,10,10,27,9.60
2011,11,10,10,28,8.10
2011,11,10,10,29,9.60
2011,11,10,10,30,11.30
2011,11,10,10,31,6.40
2011,11,10,10,32,4.80
2011,11,10,10,33,3.20
2011,11,10,10,34,4.80
2011,11,10,10,35,6.40
2011,11,10,10,36,6.40
2011,11,10,10,37,9.60
2011,11,10,10,38,14.50
2011,11,10,10,39,12.90
2011,11,10,10,40,11.30
2011,11,10,10,41,14.50
2011,11,10,10,42,12.90
2011,11,10,10,43,20.90
2011,11,10,10,44,14.50
2011,11,10,10,45,8.10
2011,11,10,10,46,9.60
2011,11,10,10,47,11.30
2011,11,10,10,48,9.60
2011,11,10,10,49,6.40
2011,11,10,10,50,4.80
2011,11,10,10,51,4.80
2011,11,10,10,52,9.60
2011,11,10,10,53,8.10
2011,11,10,10,54,3.20
2011,11,10,10,55,14.50
2011,11,10,10,56,12.90
2011,11,10,10,57,14.50
2011,11,10,10,58,9.60
2011,11,10,10,59,14.50
2011,11,10,11,00,22.50
2011,11,10,11,01,17.70
2011,11,10,11,02,24.20
2011,11,10,11,03,22.50
2011,11,10,11,04,22.50
2011,11,10,11,05,25.70
2011,11,10,11,06,24.20
2011,11,10,11,07,24.20
2011,11,10,11,08,24.20
2011,11,10,11,09,25.70
2011,11,10,11,10,19.30
2011,11,10,11,11,16.10
2011,11,10,11,12,24.20
2011,11,10,11,13,19.30
2011,11,10,11,14,20.90
2011,11,10,11,15,22.50
2011,11,10,11,16,16.10
2011,11,10,11,17,17.70
2011,11,10,11,18,19.30
2011,11,10,11,19,14.50
2011,11,10,11,20,16.10
2011,11,10,11,21,22.50
2011,11,10,11,22,19.30
2011,11,10,11,23,20.90
2011,11,10,11,24,17.70
2011,11,10,11,25,20.90
2011,11,10,11,26,25.70
2011,11,10,11,27,24.20
2011,11,10,11,28,20.90
2011,11,10,11,29,19.30
2011,11,10,11,30,16.10
2011,11,10,11,31,17.70
2011,11,10,11,32,16.10
2011,11,10,11,33,20.90
2011,11,10,11,34,22.50
2011,11,10,11,35,22.50
2011,11,10,11,36,27.40
2011,11,10,11,37,25.70
2011,11,10,11,38,24.20
2011,11,10,11,39,22.50
2011,11,10,11,40,22.50
2011,11,10,11,41,22.50
2011,11,10,11,42,16.10
2011,11,10,11,43,17.70
2011,11,10,11,44,19.30
2011,11,10,11,45,17.70
2011,11,10,11,46,17.70
2011,11,10,11,47,14.50
2011,11,10,11,48,14.50
2011,11,10,11,49,17.70
2011,11,10,11,50,12.90
2011,11,10,11,51,11.30
2011,11,10,11,52,9.60
2011,11,10,11,53,16.10
2011,11,10,11,54,16.10
2011,11,10,11,55,9.60
2011,11,10,11,56,12.90
2011,11,10,11,57,14.50
2011,11,10,11,58,11.30
2011,11,10,11,59,12.90
2011,11,10,12,00,11.30
2011,11,10,12,01,8.10
2011,11,10,12,02,11.30
2011,11,10,12,03,9.60
2011,11,10,12,04,8.10
2011,11,10,12,05,11.30
2011,11,10,12,06,11.30
2011,11,10,12,07,11.30
2011,11,10,12,08,9.60
2011,11,10,12,09,11.30
2011,11,10,12,10,11.30
2011,11,10,12,11,11.30
2011,11,10,12,12,14.50
2011,11,10,12,13,11.30
2011,11,10,12,14,9.60
2011,11,10,12,15,9.60
2011,11,10,12,16,9.60
2011,11,10,12,17,9.60
2011,11,10,12,18,9.60
2011,11,10,12,19,16.10
2011,11,10,12,20,12.90
2011,11,10,12,21,19.30
2011,11,10,12,22,14.50
2011,11,10,12,23,16.10
2011,11,10,12,24,19.30
2011,11,10,12,25,12.90
2011,11,10,12,26,11.30
2011,11,10,12,27,9.60
2011,11,10,12,28,14.50
2011,11,10,12,29,17.70
2011,11,10,12,30,17.70
2011,11,10,12,31,16.10
2011,11,10,12,32,16.10
2011,11,10,12,33,16.10
2011,11,10,12,34,11.30
2011,11,10,12,35,9.60
2011,11,10,12,36,6.40
2011,11,10,12,37,11.30
2011,11,10,12,38,9.60
2011,11,10,12,39,11.30
2011,11,10,12,40,11.30
2011,11,10,12,41,20.90
2011,11,10,12,42,20.90
2011,11,10,12,43,17.70
2011,11,10,12,44,16.10
2011,11,10,12,45,19.30
2011,11,10,12,46,20.90
2011,11,10,12,47,20.90
2011,11,10,12,48,19.30
2011,11,10,12,49,19.30
2011,11,10,12,50,12.90
2011,11,10,12,51,11.30
2011,11,10,12,52,20.90
2011,11,10,12,53,19.30
2011,11,10,12,54,19.30
2011,11,10,12,55,14.50
2011,11,10,12,56,16.10
2011,11,10,12,57,19.30
2011,11,10,12,58,20.90
2011,11,10,12,59,20.90
2011,11,10,13,00,22.50
2011,11,10,13,01,22.50
2011,11,10,13,02,17.70
2011,11,10,13,03,17.70
2011,11,10,13,04,14.50
2011,11,10,13,05,9.60
2011,11,10,13,06,14.50
2011,11,10,13,07,16.10
2011,11,10,13,08,16.10
2011,11,10,13,09,17.70
2011,11,10,13,10,14.50
2011,11,10,13,11,16.10
2011,11,10,13,12,14.50
2011,11,10,13,13,11.30
2011,11,10,13,14,9.60
2011,11,10,13,15,8.10
2011,11,10,13,16,11.30
2011,11,10,13,17,9.60
2011,11,10,13,18,12.90
2011,11,10,13,19,11.30
2011,11,10,13,20,9.60
2011,11,10,13,21,9.60
2011,11,10,13,22,14.50
2011,11,10,13,23,9.60
2011,11,10,13,24,11.30
2011,11,10,13,25,12.90
2011,11,10,13,26,9.60
2011,11,10,13,27,9.60
2011,11,10,13,28,8.10
2011,11,10,13,29,8.10
2011,11,10,13,30,8.10
2011,11,10,13,31,11.30
2011,11,10,13,32,16.10
2011,11,10,13,33,17.70
2011,11,10,13,34,17.70
2011,11,10,13,35,14.50
2011,11,10,13,36,16.10
2011,11,10,13,37,14.50
2011,11,10,13,38,17.70
2011,11,10,13,39,20.90
2011,11,10,13,44,16.10
2011,11,10,13,45,14.50
2011,11,10,13,46,9.60
2011,11,10,13,47,9.60
2011,11,10,13,48,8.10
2011,11,10,13,49,9.60
2011,11,10,13,50,17.70
2011,11,10,13,51,16.10
2011,11,10,13,52,8.10
2011,11,10,13,53,8.10
2011,11,10,13,54,8.10
2011,11,10,13,55,8.10
2011,11,10,13,56,11.30
2011,11,10,13,57,11.30
2011,11,10,13,58,11.30
2011,11,10,13,59,9.60
2011,11,10,14,00,9.60
2011,11,10,14,01,19.30
2011,11,10,14,02,17.70
2011,11,10,14,03,16.10
2011,11,10,14,04,16.10
2011,11,10,14,05,12.90
2011,11,10,14,06,16.10
2011,11,10,14,07,14.50
2011,11,10,14,08,16.10
2011,11,10,14,09,16.10
2011,11,10,14,10,14.50
2011,11,10,14,11,16.10
2011,11,10,14,12,11.30
2011,11,10,14,13,11.30
2011,11,10,14,14,9.60
2011,11,10,14,15,14.50
2011,11,10,14,16,14.50
2011,11,10,14,17,8.10
2011,11,10,14,18,16.10
2011,11,10,14,19,14.50
2011,11,10,14,20,12.90
2011,11,10,14,21,11.30
2011,11,10,14,22,11.30
2011,11,10,14,23,12.90
2011,11,10,14,24,16.10
2011,11,10,14,25,17.70
2011,11,10,14,26,16.10
2011,11,10,14,27,17.70
2011,11,10,14,28,14.50
2011,11,10,14,29,11.30
2011,11,10,14,30,12.90
2011,11,10,14,31,11.30
2011,11,10,14,32,11.30
2011,11,10,14,33,11.30
2011,11,10,14,34,11.30
2011,11,10,14,35,11.30
2011,11,10,14,36,8.10
2011,11,10,14,37,11.30
2011,11,10,14,38,9.60
2011,11,10,14,39,9.60
2011,11,10,14,40,8.10
2011,11,10,14,41,11.30
2011,11,10,14,42,11.30
2011,11,10,14,43,9.60
2011,11,10,14,44,8.10
2011,11,10,14,45,8.10
2011,11,10,14,46,8.10
2011,11,10,14,47,8.10
2011,11,10,14,48,6.40
2011,11,10,14,49,8.10
2011,11,10,14,50,9.60
2011,11,10,14,51,6.40
2011,11,10,14,52,8.10
2011,11,10,14,53,8.10
2011,11,10,14,54,6.40
2011,11,10,14,55,6.40
2011,11,10,14,56,9.60
2011,11,10,14,57,8.10
2011,11,10,14,58,6.40
2011,11,10,14,59,4.80
2011,11,10,15,00,6.40
2011,11,10,15,01,9.60
2011,11,10,15,02,9.60
2011,11,10,15,03,9.60
2011,11,10,15,04,6.40
2011,11,10,15,05,6.40
2011,11,10,15,06,6.40
2011,11,10,15,07,6.40
2011,11,10,15,08,8.10
2011,11,10,15,09,8.10
2011,11,10,15,10,8.10
2011,11,10,15,11,8.10
2011,11,10,15,12,11.30
2011,11,10,15,13,11.30
2011,11,10,15,14,9.60
2011,11,10,15,15,9.60
2011,11,10,15,16,11.30
2011,11,10,15,17,9.60
2011,11,10,15,18,14.50
2011,11,10,15,19,14.50
2011,11,10,15,20,9.60
2011,11,10,15,21,9.60
2011,11,10,15,22,11.30
2011,11,10,15,23,11.30
2011,11,10,15,24,9.60
2011,11,10,15,25,11.30
2011,11,10,15,26,9.60
2011,11,10,15,27,9.60
2011,11,10,15,28,9.60
2011,11,10,15,29,11.30
2011,11,10,15,30,9.60
2011,11,10,15,31,8.10
2011,11,10,15,32,8.10
2011,11,10,15,33,8.10
2011,11,10,15,34,8.10
2011,11,10,15,35,9.60
2011,11,10,15,36,11.30
2011,11,10,15,37,8.10
2011,11,10,15,38,8.10
2011,11,10,15,39,6.40
2011,11,10,15,40,6.40
2011,11,10,15,41,9.60
2011,11,10,15,42,9.60
2011,11,10,15,43,8.10
2011,11,10,15,44,8.10
2011,11,10,15,45,8.10
2011,11,10,15,46,6.40
2011,11,10,15,47,4.80
2011,11,10,15,48,4.80
2011,11,10,15,49,4.80
2011,11,10,15,50,8.10
2011,11,10,15,51,9.60
2011,11,10,15,52,8.10
2011,11,10,15,53,9.60
2011,11,10,15,54,9.60
2011,11,10,15,55,8.10
2011,11,10,15,56,4.80
2011,11,10,15,57,6.40
2011,11,10,15,58,1.60
2011,11,10,16,00,4.80
2011,11,10,16,01,3.20
2011,11,10,16,02,3.20
2011,11,10,16,03,4.80
2011,11,10,16,04,8.10
2011,11,10,16,05,17.70
2011,11,10,16,06,16.10
2011,11,10,16,07,16.10
2011,11,10,16,08,9.60
2011,11,10,16,09,24.20
2011,11,10,16,10,24.20
2011,11,10,16,11,27.40
2011,11,10,16,12,17.70
2011,11,10,16,13,16.10
2011,11,10,16,14,16.10
2011,11,10,16,15,16.10
2011,11,10,16,16,17.70
2011,11,10,16,17,19.30
2011,11,10,16,18,12.90
2011,11,10,16,19,19.30
2011,11,10,16,20,12.90
2011,11,10,16,21,8.10
2011,11,10,16,22,8.10
2011,11,10,16,23,8.10
2011,11,10,16,24,22.50
2011,11,10,16,25,17.70
2011,11,10,16,26,19.30
2011,11,10,16,27,11.30
2011,11,10,16,28,9.60
2011,11,10,16,29,4.80
2011,11,10,16,30,8.10
2011,11,10,16,31,9.60
2011,11,10,16,32,9.60
2011,11,10,16,33,6.40
2011,11,10,16,34,8.10
2011,11,10,16,35,16.10
2011,11,10,16,36,16.10
2011,11,10,16,37,19.30
2011,11,10,16,38,14.50
2011,11,10,16,39,9.60
2011,11,10,16,40,6.40
2011,11,10,16,41,6.40
2011,11,10,16,42,8.10
2011,11,10,16,43,14.50
2011,11,10,16,44,9.60
2011,11,10,16,45,16.10
2011,11,10,16,46,9.60
2011,11,10,16,47,20.90
2011,11,10,16,48,17.70
2011,11,10,16,49,24.20
2011,11,10,16,50,19.30
2011,11,10,16,51,22.50
2011,11,10,16,52,20.90
2011,11,10,16,53,22.50
2011,11,10,16,54,24.20
2011,11,10,16,55,22.50
2011,11,10,16,56,22.50
2011,11,10,16,57,19.30
2011,11,10,16,58,17.70
2011,11,10,16,59,16.10
2011,11,10,17,00,25.70
2011,11,10,17,01,17.70
2011,11,10,17,02,16.10
2011,11,10,17,03,14.50
2011,11,10,17,04,17.70
2011,11,10,17,05,17.70
2011,11,10,17,06,16.10
2011,11,10,17,07,20.90
2011,11,10,17,08,17.70
2011,11,10,17,09,24.20
2011,11,10,17,10,25.70
2011,11,10,17,11,25.70
2011,11,10,17,12,25.70
2011,11,10,17,13,27.40
2011,11,10,17,14,17.70
2011,11,10,17,15,24.20
2011,11,10,17,16,19.30
2011,11,10,17,17,20.90
2011,11,10,17,18,17.70
2011,11,10,17,19,22.50
2011,11,10,17,20,20.90
2011,11,10,17,21,17.70
2011,11,10,17,22,19.30
2011,11,10,17,23,20.90
2011,11,10,17,24,24.20
2011,11,10,17,25,22.50
2011,11,10,17,26,25.70
2011,11,10,17,27,20.90
2011,11,10,17,28,17.70
2011,11,10,17,29,20.90
2011,11,10,17,30,19.30
2011,11,10,17,31,24.20
2011,11,10,17,32,20.90
2011,11,10,17,33,20.90
2011,11,10,17,34,20.90
2011,11,10,17,35,19.30
2011,11,10,17,36,19.30
2011,11,10,17,37,19.30
2011,11,10,17,38,19.30
2011,11,10,17,39,22.50
2011,11,10,17,40,19.30
2011,11,10,17,41,20.90
2011,11,10,17,42,19.30
2011,11,10,17,43,19.30
2011,11,10,17,44,19.30
2011,11,10,17,45,16.10
2011,11,10,17,46,17.70
2011,11,10,17,47,19.30
2011,11,10,17,48,19.30
2011,11,10,17,49,17.70
2011,11,10,17,50,17.70
2011,11,10,17,51,17.70
2011,11,10,17,52,17.70
2011,11,10,17,53,20.90
2011,11,10,17,54,17.70
2011,11,10,17,55,17.70
2011,11,10,17,56,17.70
2011,11,10,17,57,17.70
2011,11,10,17,58,19.30
2011,11,10,17,59,17.70
2011,11,10,18,00,16.10
2011,11,10,18,01,14.50
2011,11,10,18,02,12.90
2011,11,10,18,03,11.30
2011,11,10,18,04,11.30
2011,11,10,18,05,8.10
2011,11,10,18,06,14.50
2011,11,10,18,07,17.70
2011,11,10,18,08,19.30
2011,11,10,18,09,17.70
2011,11,10,18,10,19.30
2011,11,10,18,11,14.50
2011,11,10,18,12,14.50
2011,11,10,18,13,14.50
2011,11,10,18,14,16.10
2011,11,10,18,15,14.50
2011,11,10,18,16,14.50